When you browse on this site, cookies collect data to enhance your experience and personalize the content and advertising you see.
Visit our Privacy Policy to learn more. By continuing to use the site, you agree to this use of cookies and data.
  • In Hungary
  • List of Countries
  • For 7 days
  • Water Temperature
  • Satellite Maps
  • Weather Map
  • News
  • Weather Widgets
  • user-avatar
    Login

    Hourly Weather Belaazyorsk

    Today, 18 June, Tuesday

    Time Temperature Precipitation Wind Pressure Humidity
    00:00 +16°C° 0 mm 2 mps 752 mmHg 94%
    01:00 +16°C° 0 mm 3 mps 752 mmHg 95%
    02:00 +16°C° 0 mm 3 mps 752 mmHg 97%
    03:00 +16°C° 0 mm 3 mps 752 mmHg 97%
    04:00 +15°C° 0 mm 2 mps 752 mmHg 97%
    05:00 +15°C° 0 mm 2 mps 752 mmHg 97%
    06:00 +17°C° 0 mm 2 mps 752 mmHg 93%
    07:00 +18°C° 0 mm 2 mps 752 mmHg 88%
    08:00 +20°C° 0 mm 2 mps 753 mmHg 83%
    09:00 +21°C° 0 mm 2 mps 753 mmHg 78%
    10:00 +23°C° 0 mm 2 mps 753 mmHg 74%
    11:00 +24°C° 0 mm 2 mps 752 mmHg 69%
    12:00 +25°C° 0 mm 2 mps 752 mmHg 67%
    13:00 +25°C° 0 mm 2 mps 752 mmHg 65%
    14:00 +25°C° 0 mm 2 mps 752 mmHg 63%
    15:00 +25°C° 0 mm 2 mps 752 mmHg 64%
    16:00 +25°C° 0 mm 3 mps 752 mmHg 65%
    17:00 +25°C° 0 mm 3 mps 751 mmHg 67%
    18:00 +24°C° 0 mm 2 mps 751 mmHg 72%
    19:00 +23°C° 0 mm 2 mps 751 mmHg 77%
    20:00 +20°C° 0 mm 2 mps 751 mmHg 82%
    21:00 +19°C° 0 mm 2 mps 751 mmHg 85%
    22:00 +18°C° 0 mm 2 mps 751 mmHg 87%
    23:00 +17°C° 0 mm 2 mps 752 mmHg 90%

    Tomorrow, 19 June, Wednesday

    Time Temperature Precipitation Wind Pressure Humidity
    00:00 +17°C° 0 mm 2 mps 752 mmHg 90%
    01:00 +16°C° 0 mm 2 mps 751 mmHg 91%
    02:00 +16°C° 0 mm 2 mps 751 mmHg 91%
    03:00 +16°C° 0 mm 2 mps 751 mmHg 90%
    04:00 +15°C° 0 mm 2 mps 751 mmHg 89%
    05:00 +15°C° 0 mm 2 mps 751 mmHg 88%
    06:00 +17°C° 0 mm 2 mps 751 mmHg 85%
    07:00 +18°C° 0 mm 3 mps 751 mmHg 82%
    08:00 +19°C° 0 mm 3 mps 751 mmHg 78%
    09:00 +21°C° 0 mm 3 mps 751 mmHg 75%
    10:00 +22°C° 0 mm 3 mps 751 mmHg 71%
    11:00 +24°C° 0 mm 3 mps 751 mmHg 68%
    12:00 +25°C° 0 mm 3 mps 750 mmHg 67%
    13:00 +26°C° 0 mm 4 mps 750 mmHg 67%
    14:00 +26°C° 0 mm 4 mps 750 mmHg 67%
    15:00 +26°C° 0 mm 4 mps 749 mmHg 69%
    16:00 +26°C° 0 mm 4 mps 749 mmHg 70%
    17:00 +26°C° 0 mm 4 mps 749 mmHg 72%
    18:00 +24°C° 0 mm 3 mps 748 mmHg 75%
    19:00 +22°C° 0 mm 3 mps 748 mmHg 79%
    20:00 +21°C° 0 mm 3 mps 748 mmHg 82%
    21:00 +20°C° 0 mm 3 mps 748 mmHg 83%
    22:00 +20°C° 0 mm 3 mps 748 mmHg 84%
    23:00 +19°C° 0 mm 3 mps 748 mmHg 85%

    Day after tomorrow, 20 June, Thursday

    Time Temperature Precipitation Wind Pressure Humidity
    00:00 +19°C° 0 mm 3 mps 748 mmHg 87%
    01:00 +19°C° 0 mm 3 mps 747 mmHg 89%
    02:00 +18°C° 0 mm 3 mps 747 mmHg 90%
    03:00 +18°C° 0.1 mm 3 mps 747 mmHg 92%
    04:00 +18°C° 0.1 mm 3 mps 747 mmHg 93%
    05:00 +19°C° 0.1 mm 3 mps 747 mmHg 94%
    06:00 +20°C° 0 mm 3 mps 747 mmHg 91%
    07:00 +21°C° 0 mm 4 mps 747 mmHg 89%
    08:00 +23°C° 0 mm 4 mps 747 mmHg 86%
    09:00 +25°C° 0.6 mm 4 mps 747 mmHg 83%
    10:00 +26°C° 0.6 mm 4 mps 747 mmHg 80%
    11:00 +27°C° 0.6 mm 4 mps 747 mmHg 77%
    12:00 +28°C° 2 mm 4 mps 747 mmHg 76%
    13:00 +28°C° 2 mm 4 mps 746 mmHg 75%
    14:00 +28°C° 2 mm 4 mps 746 mmHg 74%
    15:00 +27°C° 2.1 mm 3 mps 746 mmHg 78%
    16:00 +26°C° 2.1 mm 3 mps 746 mmHg 82%
    17:00 +25°C° 2.1 mm 3 mps 746 mmHg 86%
    18:00 +24°C° 0.9 mm 3 mps 746 mmHg 88%
    19:00 +23°C° 0.9 mm 2 mps 746 mmHg 90%
    20:00 +21°C° 0.9 mm 2 mps 746 mmHg 93%
    21:00 +21°C° 0.1 mm 2 mps 746 mmHg 93%
    22:00 +20°C° 0.1 mm 2 mps 746 mmHg 93%
    23:00 +20°C° 0.1 mm 2 mps 746 mmHg 94%

    21 June, Friday

    Time Temperature Precipitation Wind Pressure Humidity
    00:00 +20°C° 0 mm 2 mps 746 mmHg 94%
    01:00 +20°C° 0 mm 2 mps 747 mmHg 94%
    02:00 +20°C° 0 mm 2 mps 747 mmHg 94%
    03:00 +20°C° 0.1 mm 2 mps 747 mmHg 94%
    04:00 +21°C° 0.1 mm 1 mps 747 mmHg 94%
    05:00 +21°C° 0.1 mm 1 mps 747 mmHg 95%
    06:00 +22°C° 0.1 mm 1 mps 747 mmHg 91%
    07:00 +24°C° 0.1 mm 1 mps 747 mmHg 87%
    08:00 +25°C° 0.1 mm 1 mps 747 mmHg 83%
    09:00 +26°C° 0.9 mm 1 mps 747 mmHg 78%
    10:00 +27°C° 0.9 mm 1 mps 747 mmHg 73%
    11:00 +29°C° 0.9 mm 2 mps 747 mmHg 68%
    12:00 +29°C° 0.1 mm 2 mps 747 mmHg 66%
    13:00 +30°C° 0.1 mm 2 mps 747 mmHg 63%
    14:00 +30°C° 0.1 mm 2 mps 747 mmHg 60%
    15:00 +30°C° 0.6 mm 2 mps 747 mmHg 64%
    16:00 +30°C° 0.6 mm 2 mps 746 mmHg 67%
    17:00 +30°C° 0.6 mm 2 mps 746 mmHg 71%
    18:00 +28°C° 0.6 mm 2 mps 746 mmHg 75%
    19:00 +27°C° 0.6 mm 2 mps 746 mmHg 79%
    20:00 +26°C° 0.6 mm 1 mps 746 mmHg 83%
    21:00 +25°C° 0.8 mm 2 mps 746 mmHg 86%
    22:00 +24°C° 0.8 mm 2 mps 746 mmHg 89%
    23:00 +23°C° 0.8 mm 2 mps 746 mmHg 92%

    22 June, Saturday

    Time Temperature Precipitation Wind Pressure Humidity
    00:00 +23°C° 0.3 mm 2 mps 746 mmHg 92%
    01:00 +21°C° 0.3 mm 2 mps 746 mmHg 92%
    02:00 +21°C° 0.3 mm 2 mps 746 mmHg 93%
    03:00 +21°C° 0.3 mm 2 mps 746 mmHg 93%
    04:00 +21°C° 0.3 mm 2 mps 746 mmHg 94%
    05:00 +21°C° 0.3 mm 2 mps 746 mmHg 95%
    06:00 +21°C° 0 mm 3 mps 746 mmHg 93%
    07:00 +22°C° 0 mm 3 mps 746 mmHg 92%
    08:00 +24°C° 0 mm 3 mps 747 mmHg 90%
    09:00 +23°C° 0 mm 4 mps 747 mmHg 88%
    10:00 +23°C° 0 mm 4 mps 747 mmHg 86%
    11:00 +23°C° 0 mm 5 mps 748 mmHg 84%
    12:00 +23°C° 0 mm 5 mps 748 mmHg 83%
    13:00 +23°C° 0 mm 5 mps 748 mmHg 81%
    14:00 +23°C° 0 mm 5 mps 748 mmHg 80%
    15:00 +23°C° 0 mm 5 mps 749 mmHg 81%
    16:00 +22°C° 0 mm 4 mps 749 mmHg 82%
    17:00 +22°C° 0 mm 4 mps 749 mmHg 82%
    18:00 +21°C° 0 mm 4 mps 749 mmHg 83%
    19:00 +20°C° 0 mm 4 mps 749 mmHg 83%
    20:00 +20°C° 0 mm 4 mps 749 mmHg 84%
    21:00 +19°C° 0 mm 3 mps 749 mmHg 85%
    22:00 +19°C° 0 mm 3 mps 750 mmHg 86%
    23:00 +19°C° 0 mm 3 mps 750 mmHg 88%

    23 June, Sunday

    Time Temperature Precipitation Wind Pressure Humidity
    00:00 +18°C° 0 mm 3 mps 750 mmHg 89%
    01:00 +18°C° 0 mm 3 mps 750 mmHg 90%
    02:00 +17°C° 0 mm 3 mps 750 mmHg 91%
    03:00 +18°C° 0 mm 3 mps 750 mmHg 91%
    04:00 +18°C° 0 mm 4 mps 750 mmHg 91%
    05:00 +18°C° 0 mm 4 mps 750 mmHg 91%
    06:00 +18°C° 0.1 mm 4 mps 750 mmHg 91%
    07:00 +19°C° 0.1 mm 4 mps 750 mmHg 91%
    08:00 +19°C° 0.1 mm 4 mps 750 mmHg 91%
    09:00 +19°C° 0 mm 4 mps 750 mmHg 91%
    10:00 +19°C° 0 mm 4 mps 750 mmHg 91%
    11:00 +19°C° 0 mm 4 mps 750 mmHg 91%
    12:00 +19°C° 0 mm 4 mps 750 mmHg 90%
    13:00 +19°C° 0 mm 4 mps 750 mmHg 90%
    14:00 +20°C° 0 mm 4 mps 750 mmHg 89%
    15:00 +19°C° 0.2 mm 4 mps 750 mmHg 90%
    16:00 +19°C° 0.2 mm 3 mps 750 mmHg 91%
    17:00 +19°C° 0.2 mm 3 mps 750 mmHg 93%
    18:00 +18°C° 0.1 mm 3 mps 750 mmHg 93%
    19:00 +18°C° 0.1 mm 3 mps 750 mmHg 94%
    20:00 +18°C° 0.1 mm 3 mps 750 mmHg 95%
    21:00 +18°C° 0 mm 3 mps 750 mmHg 94%
    22:00 +18°C° 0 mm 3 mps 751 mmHg 94%
    23:00 +17°C° 0 mm 3 mps 751 mmHg 94%
    Show more